owner,sensor,date,latitude,longitude,sea_water_turbidity,qcFlag 
SCCF RECON,ioos:station:SCCF:53:1,2008-11-01T00:00:00Z,26.6493,-81.8810,2.74,1111122 
SCCF RECON,ioos:station:SCCF:53:1,2008-11-01T01:00:00Z,26.6493,-81.8810,2.2,1111122 
SCCF RECON,ioos:station:SCCF:53:1,2008-11-01T02:00:00Z,26.6493,-81.8810,2.44,1111122 
SCCF RECON,ioos:station:SCCF:53:1,2008-11-01T03:00:00Z,26.6493,-81.8810,2.08,1111122 
SCCF RECON,ioos:station:SCCF:53:1,2008-11-01T04:00:00Z,26.6493,-81.8810,2.1,1111122 
SCCF RECON,ioos:station:SCCF:53:1,2008-11-01T05:00:00Z,26.6493,-81.8810,2.23,1111122 
SCCF RECON,ioos:station:SCCF:53:1,2008-11-01T06:00:00Z,26.6493,-81.8810,2.23,1111122 
SCCF RECON,ioos:station:SCCF:53:1,2008-11-01T07:00:00Z,26.6493,-81.8810,2.0,1111122 
SCCF RECON,ioos:station:SCCF:53:1,2008-11-01T08:00:00Z,26.6493,-81.8810,2.04,1111122 
SCCF RECON,ioos:station:SCCF:53:1,2008-11-01T09:00:00Z,26.6493,-81.8810,2.66,1111122 
SCCF RECON,ioos:station:SCCF:53:1,2008-11-01T10:00:00Z,26.6493,-81.8810,2.03,1111122 
SCCF RECON,ioos:station:SCCF:53:1,2008-11-01T11:00:00Z,26.6493,-81.8810,1.9,1111122 
SCCF RECON,ioos:station:SCCF:53:1,2008-11-01T12:00:00Z,26.6493,-81.8810,3.02,1111122 
SCCF RECON,ioos:station:SCCF:53:1,2008-11-01T13:00:00Z,26.6493,-81.8810,4.22,1111122 
SCCF RECON,ioos:station:SCCF:53:1,2008-11-01T14:00:00Z,26.6493,-81.8810,1.87,1111122 
SCCF RECON,ioos:station:SCCF:53:1,2008-11-01T15:00:00Z,26.6493,-81.8810,1.83,1111122 
SCCF RECON,ioos:station:SCCF:53:1,2008-11-01T16:00:00Z,26.6493,-81.8810,1.97,1111122 
SCCF RECON,ioos:station:SCCF:53:1,2008-11-01T17:00:00Z,26.6493,-81.8810,2.79,1111122 
SCCF RECON,ioos:station:SCCF:53:1,2008-11-01T18:00:00Z,26.6493,-81.8810,2.26,1111122 
SCCF RECON,ioos:station:SCCF:53:1,2008-11-01T19:00:00Z,26.6493,-81.8810,2.82,1111122 
SCCF RECON,ioos:station:SCCF:53:1,2008-11-01T20:00:00Z,26.6493,-81.8810,2.9,1111122 
SCCF RECON,ioos:station:SCCF:53:1,2008-11-01T21:00:00Z,26.6493,-81.8810,2.76,1111122 
SCCF RECON,ioos:station:SCCF:53:1,2008-11-01T22:00:00Z,26.6493,-81.8810,2.68,1111122 
SCCF RECON,ioos:station:SCCF:53:1,2008-11-01T23:00:00Z,26.6493,-81.8810,2.67,1111122 
SCCF RECON,ioos:station:SCCF:53:1,2008-11-02T00:00:00Z,26.6493,-81.8810,2.96,1111122 
SCCF RECON,ioos:station:SCCF:53:1,2008-11-02T01:00:00Z,26.6493,-81.8810,2.14,1111122 
SCCF RECON,ioos:station:SCCF:53:1,2008-11-02T02:00:00Z,26.6493,-81.8810,2.09,1111122 
SCCF RECON,ioos:station:SCCF:53:1,2008-11-02T03:00:00Z,26.6493,-81.8810,2.16,1111122 
SCCF RECON,ioos:station:SCCF:53:1,2008-11-02T04:00:00Z,26.6493,-81.8810,2.09,1111122 
SCCF RECON,ioos:station:SCCF:53:1,2008-11-02T05:00:00Z,26.6493,-81.8810,2.19,1111122 
SCCF RECON,ioos:station:SCCF:53:1,2008-11-02T06:00:00Z,26.6493,-81.8810,2.34,1111122 
SCCF RECON,ioos:station:SCCF:53:1,2008-11-02T07:00:00Z,26.6493,-81.8810,2.27,1111122 
SCCF RECON,ioos:station:SCCF:53:1,2008-11-02T08:00:00Z,26.6493,-81.8810,2.13,1111122 
SCCF RECON,ioos:station:SCCF:53:1,2008-11-02T09:00:00Z,26.6493,-81.8810,2.24,1111122 
SCCF RECON,ioos:station:SCCF:53:1,2008-11-02T10:00:00Z,26.6493,-81.8810,2.18,1111122 
SCCF RECON,ioos:station:SCCF:53:1,2008-11-02T11:00:00Z,26.6493,-81.8810,1.92,1111122 
SCCF RECON,ioos:station:SCCF:53:1,2008-11-02T12:00:00Z,26.6493,-81.8810,1.92,1111122 
SCCF RECON,ioos:station:SCCF:53:1,2008-11-02T13:00:00Z,26.6493,-81.8810,2.76,1111122 
SCCF RECON,ioos:station:SCCF:53:1,2008-11-02T14:00:00Z,26.6493,-81.8810,2.07,1111122 
SCCF RECON,ioos:station:SCCF:53:1,2008-11-02T15:00:00Z,26.6493,-81.8810,2.35,1111122 
SCCF RECON,ioos:station:SCCF:53:1,2008-11-02T16:00:00Z,26.6493,-81.8810,2.15,1111122 
SCCF RECON,ioos:station:SCCF:53:1,2008-11-02T17:00:00Z,26.6493,-81.8810,2.16,1111122 
SCCF RECON,ioos:station:SCCF:53:1,2008-11-02T18:00:00Z,26.6493,-81.8810,2.12,1111122 
SCCF RECON,ioos:station:SCCF:53:1,2008-11-02T19:00:00Z,26.6493,-81.8810,2.92,1111122 
SCCF RECON,ioos:station:SCCF:53:1,2008-11-02T20:00:00Z,26.6493,-81.8810,3.28,1111122 
SCCF RECON,ioos:station:SCCF:53:1,2008-11-02T21:00:00Z,26.6493,-81.8810,3.24,1111122 
SCCF RECON,ioos:station:SCCF:53:1,2008-11-02T22:00:00Z,26.6493,-81.8810,4.68,1111122 
SCCF RECON,ioos:station:SCCF:53:1,2008-11-02T23:00:00Z,26.6493,-81.8810,2.8,1111122 
SCCF RECON,ioos:station:SCCF:53:1,2008-11-03T00:00:00Z,26.6493,-81.8810,2.9,1111122 
SCCF RECON,ioos:station:SCCF:53:1,2008-11-03T01:00:00Z,26.6493,-81.8810,2.47,1111122 
SCCF RECON,ioos:station:SCCF:53:1,2008-11-03T02:00:00Z,26.6493,-81.8810,2.43,1111122 
SCCF RECON,ioos:station:SCCF:53:1,2008-11-03T03:00:00Z,26.6493,-81.8810,2.54,1111122 
SCCF RECON,ioos:station:SCCF:53:1,2008-11-03T04:00:00Z,26.6493,-81.8810,2.17,1111122 
SCCF RECON,ioos:station:SCCF:53:1,2008-11-03T05:00:00Z,26.6493,-81.8810,2.46,1111122 
SCCF RECON,ioos:station:SCCF:53:1,2008-11-03T06:00:00Z,26.6493,-81.8810,2.85,1111122 
SCCF RECON,ioos:station:SCCF:53:1,2008-11-03T07:00:00Z,26.6493,-81.8810,2.43,1111122 
SCCF RECON,ioos:station:SCCF:53:1,2008-11-03T08:00:00Z,26.6493,-81.8810,2.32,1111122 
SCCF RECON,ioos:station:SCCF:53:1,2008-11-03T09:00:00Z,26.6493,-81.8810,2.45,1111122 
SCCF RECON,ioos:station:SCCF:53:1,2008-11-03T10:00:00Z,26.6493,-81.8810,2.08,1111122 
SCCF RECON,ioos:station:SCCF:53:1,2008-11-03T11:00:00Z,26.6493,-81.8810,2.19,1111122 
SCCF RECON,ioos:station:SCCF:53:1,2008-11-03T12:00:00Z,26.6493,-81.8810,2.13,1111122 
SCCF RECON,ioos:station:SCCF:53:1,2008-11-03T13:00:00Z,26.6493,-81.8810,1.96,1111122 
SCCF RECON,ioos:station:SCCF:53:1,2008-11-03T14:00:00Z,26.6493,-81.8810,6.67,1111122 
SCCF RECON,ioos:station:SCCF:53:1,2008-11-03T15:00:00Z,26.6493,-81.8810,4.77,1111122 
SCCF RECON,ioos:station:SCCF:53:1,2008-11-03T16:00:00Z,26.6493,-81.8810,3.48,1111122 
SCCF RECON,ioos:station:SCCF:53:1,2008-11-03T17:00:00Z,26.6493,-81.8810,2.31,1111122 
SCCF RECON,ioos:station:SCCF:53:1,2008-11-03T18:00:00Z,26.6493,-81.8810,2.84,1111122 
SCCF RECON,ioos:station:SCCF:53:1,2008-11-03T19:00:00Z,26.6493,-81.8810,3.33,1111122 
SCCF RECON,ioos:station:SCCF:53:1,2008-11-03T20:00:00Z,26.6493,-81.8810,2.98,1111122 
SCCF RECON,ioos:station:SCCF:53:1,2008-11-03T21:00:00Z,26.6493,-81.8810,3.87,1111122 
SCCF RECON,ioos:station:SCCF:53:1,2008-11-03T22:00:00Z,26.6493,-81.8810,3.8,1111122 
SCCF RECON,ioos:station:SCCF:53:1,2008-11-03T23:00:00Z,26.6493,-81.8810,3.24,1111122 
SCCF RECON,ioos:station:SCCF:53:1,2008-11-04T00:00:00Z,26.6493,-81.8810,2.83,1111122 
SCCF RECON,ioos:station:SCCF:53:1,2008-11-04T01:00:00Z,26.6493,-81.8810,2.76,1111122 
SCCF RECON,ioos:station:SCCF:53:1,2008-11-04T02:00:00Z,26.6493,-81.8810,2.6,1111122 
SCCF RECON,ioos:station:SCCF:53:1,2008-11-04T03:00:00Z,26.6493,-81.8810,2.35,1111122 
SCCF RECON,ioos:station:SCCF:53:1,2008-11-04T04:00:00Z,26.6493,-81.8810,2.65,1111122 
SCCF RECON,ioos:station:SCCF:53:1,2008-11-04T05:00:00Z,26.6493,-81.8810,2.07,1111122 
SCCF RECON,ioos:station:SCCF:53:1,2008-11-04T06:00:00Z,26.6493,-81.8810,2.32,1111122 
SCCF RECON,ioos:station:SCCF:53:1,2008-11-04T07:00:00Z,26.6493,-81.8810,2.24,1111122 
SCCF RECON,ioos:station:SCCF:53:1,2008-11-04T08:00:00Z,26.6493,-81.8810,2.42,1111122 
SCCF RECON,ioos:station:SCCF:53:1,2008-11-04T09:00:00Z,26.6493,-81.8810,2.37,1111122 
SCCF RECON,ioos:station:SCCF:53:1,2008-11-04T10:00:00Z,26.6493,-81.8810,2.65,1111122 
SCCF RECON,ioos:station:SCCF:53:1,2008-11-04T11:00:00Z,26.6493,-81.8810,2.25,1111122 
SCCF RECON,ioos:station:SCCF:53:1,2008-11-04T12:00:00Z,26.6493,-81.8810,2.12,1111122 
SCCF RECON,ioos:station:SCCF:53:1,2008-11-04T13:00:00Z,26.6493,-81.8810,2.13,1111122 
SCCF RECON,ioos:station:SCCF:53:1,2008-11-04T14:00:00Z,26.6493,-81.8810,2.03,1111122 
SCCF RECON,ioos:station:SCCF:53:1,2008-11-04T15:00:00Z,26.6493,-81.8810,3.4,1111122 
SCCF RECON,ioos:station:SCCF:53:1,2008-11-04T16:00:00Z,26.6493,-81.8810,2.46,1111122 
SCCF RECON,ioos:station:SCCF:53:1,2008-11-04T17:00:00Z,26.6493,-81.8810,2.55,1111122 
SCCF RECON,ioos:station:SCCF:53:1,2008-11-04T18:00:00Z,26.6493,-81.8810,2.49,1111122 
SCCF RECON,ioos:station:SCCF:53:1,2008-11-04T19:00:00Z,26.6493,-81.8810,2.98,1111122 
SCCF RECON,ioos:station:SCCF:53:1,2008-11-04T20:00:00Z,26.6493,-81.8810,3.22,1111122 
SCCF RECON,ioos:station:SCCF:53:1,2008-11-04T21:00:00Z,26.6493,-81.8810,2.9,1111122 
SCCF RECON,ioos:station:SCCF:53:1,2008-11-04T22:00:00Z,26.6493,-81.8810,4.29,1111122 
SCCF RECON,ioos:station:SCCF:53:1,2008-11-04T23:00:00Z,26.6493,-81.8810,3.66,1111122 
SCCF RECON,ioos:station:SCCF:53:1,2008-11-05T00:00:00Z,26.6493,-81.8810,3.06,1111122 
SCCF RECON,ioos:station:SCCF:53:1,2008-11-05T01:00:00Z,26.6493,-81.8810,2.83,1111122 
SCCF RECON,ioos:station:SCCF:53:1,2008-11-05T02:00:00Z,26.6493,-81.8810,2.81,1111122 
SCCF RECON,ioos:station:SCCF:53:1,2008-11-05T03:00:00Z,26.6493,-81.8810,2.79,1111122 
SCCF RECON,ioos:station:SCCF:53:1,2008-11-05T04:00:00Z,26.6493,-81.8810,2.64,1111122 
SCCF RECON,ioos:station:SCCF:53:1,2008-11-05T05:00:00Z,26.6493,-81.8810,2.51,1111122 
SCCF RECON,ioos:station:SCCF:53:1,2008-11-05T06:00:00Z,26.6493,-81.8810,2.67,1111122 
SCCF RECON,ioos:station:SCCF:53:1,2008-11-05T07:00:00Z,26.6493,-81.8810,2.47,1111122 
SCCF RECON,ioos:station:SCCF:53:1,2008-11-05T08:00:00Z,26.6493,-81.8810,2.73,1111122 
SCCF RECON,ioos:station:SCCF:53:1,2008-11-05T09:00:00Z,26.6493,-81.8810,2.47,1111122 
SCCF RECON,ioos:station:SCCF:53:1,2008-11-05T10:00:00Z,26.6493,-81.8810,3.19,1111122 
SCCF RECON,ioos:station:SCCF:53:1,2008-11-05T11:00:00Z,26.6493,-81.8810,2.91,1111122 
SCCF RECON,ioos:station:SCCF:53:1,2008-11-05T12:00:00Z,26.6493,-81.8810,2.49,1111122 
SCCF RECON,ioos:station:SCCF:53:1,2008-11-05T13:00:00Z,26.6493,-81.8810,2.46,1111122 
SCCF RECON,ioos:station:SCCF:53:1,2008-11-05T14:00:00Z,26.6493,-81.8810,2.56,1111122 
SCCF RECON,ioos:station:SCCF:53:1,2008-11-05T15:00:00Z,26.6493,-81.8810,2.74,1111122 
SCCF RECON,ioos:station:SCCF:53:1,2008-11-05T16:00:00Z,26.6493,-81.8810,2.66,1111122 
SCCF RECON,ioos:station:SCCF:53:1,2008-11-05T17:00:00Z,26.6493,-81.8810,2.95,1111122 
SCCF RECON,ioos:station:SCCF:53:1,2008-11-05T18:00:00Z,26.6493,-81.8810,2.61,1111122 
SCCF RECON,ioos:station:SCCF:53:1,2008-11-05T19:00:00Z,26.6493,-81.8810,3.15,1111122 
SCCF RECON,ioos:station:SCCF:53:1,2008-11-05T20:00:00Z,26.6493,-81.8810,3.36,1111122 
SCCF RECON,ioos:station:SCCF:53:1,2008-11-05T21:00:00Z,26.6493,-81.8810,3.25,1111122 
SCCF RECON,ioos:station:SCCF:53:1,2008-11-05T22:00:00Z,26.6493,-81.8810,3.71,1111122 
SCCF RECON,ioos:station:SCCF:53:1,2008-11-05T23:00:00Z,26.6493,-81.8810,4.84,1111122 
SCCF RECON,ioos:station:SCCF:53:1,2008-11-06T00:00:00Z,26.6493,-81.8810,5.38,1111122 
SCCF RECON,ioos:station:SCCF:53:1,2008-11-06T01:00:00Z,26.6493,-81.8810,4.25,1111122 
SCCF RECON,ioos:station:SCCF:53:1,2008-11-06T02:00:00Z,26.6493,-81.8810,3.73,1111122 
SCCF RECON,ioos:station:SCCF:53:1,2008-11-06T03:00:00Z,26.6493,-81.8810,3.34,1111122 
SCCF RECON,ioos:station:SCCF:53:1,2008-11-06T04:00:00Z,26.6493,-81.8810,3.17,1111122 
SCCF RECON,ioos:station:SCCF:53:1,2008-11-06T05:00:00Z,26.6493,-81.8810,2.91,1111122 
SCCF RECON,ioos:station:SCCF:53:1,2008-11-06T06:00:00Z,26.6493,-81.8810,2.58,1111122 
SCCF RECON,ioos:station:SCCF:53:1,2008-11-06T07:00:00Z,26.6493,-81.8810,2.68,1111122 
SCCF RECON,ioos:station:SCCF:53:1,2008-11-06T08:00:00Z,26.6493,-81.8810,2.9,1111122 
SCCF RECON,ioos:station:SCCF:53:1,2008-11-06T09:00:00Z,26.6493,-81.8810,2.8,1111122 
SCCF RECON,ioos:station:SCCF:53:1,2008-11-06T10:00:00Z,26.6493,-81.8810,2.87,1111122 
SCCF RECON,ioos:station:SCCF:53:1,2008-11-06T11:00:00Z,26.6493,-81.8810,2.96,1111122 
SCCF RECON,ioos:station:SCCF:53:1,2008-11-06T12:00:00Z,26.6493,-81.8810,2.72,1111122 
SCCF RECON,ioos:station:SCCF:53:1,2008-11-06T13:00:00Z,26.6493,-81.8810,3.31,1111122 
SCCF RECON,ioos:station:SCCF:53:1,2008-11-06T14:00:00Z,26.6493,-81.8810,3.62,1111122 
SCCF RECON,ioos:station:SCCF:53:1,2008-11-06T15:00:00Z,26.6493,-81.8810,3.48,1111122 
SCCF RECON,ioos:station:SCCF:53:1,2008-11-06T16:00:00Z,26.6493,-81.8810,3.3,1111122 
SCCF RECON,ioos:station:SCCF:53:1,2008-11-06T17:00:00Z,26.6493,-81.8810,3.28,1111122 
SCCF RECON,ioos:station:SCCF:53:1,2008-11-06T18:00:00Z,26.6493,-81.8810,3.15,1111122 
SCCF RECON,ioos:station:SCCF:53:1,2008-11-06T19:00:00Z,26.6493,-81.8810,3.4,1111122 
SCCF RECON,ioos:station:SCCF:53:1,2008-11-06T20:00:00Z,26.6493,-81.8810,3.18,1111122 
SCCF RECON,ioos:station:SCCF:53:1,2008-11-06T21:00:00Z,26.6493,-81.8810,3.25,1111122 
SCCF RECON,ioos:station:SCCF:53:1,2008-11-06T22:00:00Z,26.6493,-81.8810,3.41,1111122 
SCCF RECON,ioos:station:SCCF:53:1,2008-11-06T23:00:00Z,26.6493,-81.8810,7.53,1111122 
SCCF RECON,ioos:station:SCCF:53:1,2008-11-07T00:00:00Z,26.6493,-81.8810,4.53,1111122 
SCCF RECON,ioos:station:SCCF:53:1,2008-11-07T01:00:00Z,26.6493,-81.8810,4.49,1111122 
SCCF RECON,ioos:station:SCCF:53:1,2008-11-07T02:00:00Z,26.6493,-81.8810,4.4,1111122 
SCCF RECON,ioos:station:SCCF:53:1,2008-11-07T03:00:00Z,26.6493,-81.8810,4.25,1111122 
SCCF RECON,ioos:station:SCCF:53:1,2008-11-07T04:00:00Z,26.6493,-81.8810,4.51,1111122 
SCCF RECON,ioos:station:SCCF:53:1,2008-11-07T05:00:00Z,26.6493,-81.8810,4.19,1111122 
SCCF RECON,ioos:station:SCCF:53:1,2008-11-07T06:00:00Z,26.6493,-81.8810,3.55,1111122 
SCCF RECON,ioos:station:SCCF:53:1,2008-11-07T07:00:00Z,26.6493,-81.8810,3.54,1111122 
SCCF RECON,ioos:station:SCCF:53:1,2008-11-07T08:00:00Z,26.6493,-81.8810,3.54,1111122 
SCCF RECON,ioos:station:SCCF:53:1,2008-11-07T09:00:00Z,26.6493,-81.8810,4.22,1111122 
SCCF RECON,ioos:station:SCCF:53:1,2008-11-07T10:00:00Z,26.6493,-81.8810,3.82,1111122 
SCCF RECON,ioos:station:SCCF:53:1,2008-11-07T11:00:00Z,26.6493,-81.8810,3.81,1111122 
SCCF RECON,ioos:station:SCCF:53:1,2008-11-07T12:00:00Z,26.6493,-81.8810,4.14,1111122 
SCCF RECON,ioos:station:SCCF:53:1,2008-11-07T13:00:00Z,26.6493,-81.8810,4.53,1111122 
SCCF RECON,ioos:station:SCCF:53:1,2008-11-07T14:00:00Z,26.6493,-81.8810,4.46,1111122 
SCCF RECON,ioos:station:SCCF:53:1,2008-11-07T15:00:00Z,26.6493,-81.8810,4.38,1111122 
SCCF RECON,ioos:station:SCCF:53:1,2008-11-07T16:00:00Z,26.6493,-81.8810,5.06,1111122 
SCCF RECON,ioos:station:SCCF:53:1,2008-11-07T17:00:00Z,26.6493,-81.8810,4.61,1111122 
SCCF RECON,ioos:station:SCCF:53:1,2008-11-07T18:00:00Z,26.6493,-81.8810,4.01,1111122 
SCCF RECON,ioos:station:SCCF:53:1,2008-11-07T19:00:00Z,26.6493,-81.8810,4.62,1111122 
SCCF RECON,ioos:station:SCCF:53:1,2008-11-07T20:00:00Z,26.6493,-81.8810,4.31,1111122 
SCCF RECON,ioos:station:SCCF:53:1,2008-11-07T21:00:00Z,26.6493,-81.8810,3.96,1111122 
SCCF RECON,ioos:station:SCCF:53:1,2008-11-07T22:00:00Z,26.6493,-81.8810,3.86,1111122 
SCCF RECON,ioos:station:SCCF:53:1,2008-11-07T23:00:00Z,26.6493,-81.8810,4.29,1111122 
SCCF RECON,ioos:station:SCCF:53:1,2008-11-08T00:00:00Z,26.6493,-81.8810,5.08,1111122 
SCCF RECON,ioos:station:SCCF:53:1,2008-11-08T01:00:00Z,26.6493,-81.8810,5.2,1111122 
SCCF RECON,ioos:station:SCCF:53:1,2008-11-08T02:00:00Z,26.6493,-81.8810,6.83,1111122 
SCCF RECON,ioos:station:SCCF:53:1,2008-11-08T03:00:00Z,26.6493,-81.8810,5.43,1111122 
SCCF RECON,ioos:station:SCCF:53:1,2008-11-08T04:00:00Z,26.6493,-81.8810,6.87,1111122 
SCCF RECON,ioos:station:SCCF:53:1,2008-11-08T05:00:00Z,26.6493,-81.8810,5.72,1111122 
SCCF RECON,ioos:station:SCCF:53:1,2008-11-08T06:00:00Z,26.6493,-81.8810,5.71,1111122 
SCCF RECON,ioos:station:SCCF:53:1,2008-11-08T07:00:00Z,26.6493,-81.8810,4.86,1111122 
SCCF RECON,ioos:station:SCCF:53:1,2008-11-08T08:00:00Z,26.6493,-81.8810,4.94,1111122 
SCCF RECON,ioos:station:SCCF:53:1,2008-11-08T09:00:00Z,26.6493,-81.8810,5.5,1111122 
SCCF RECON,ioos:station:SCCF:53:1,2008-11-08T10:00:00Z,26.6493,-81.8810,10.58,1111122 
SCCF RECON,ioos:station:SCCF:53:1,2008-11-08T11:00:00Z,26.6493,-81.8810,7.37,1111122 
SCCF RECON,ioos:station:SCCF:53:1,2008-11-08T12:00:00Z,26.6493,-81.8810,5.78,1111122 
SCCF RECON,ioos:station:SCCF:53:1,2008-11-08T13:00:00Z,26.6493,-81.8810,8.77,1111122 
SCCF RECON,ioos:station:SCCF:53:1,2008-11-08T14:00:00Z,26.6493,-81.8810,11.19,1111122 
SCCF RECON,ioos:station:SCCF:53:1,2008-11-08T15:00:00Z,26.6493,-81.8810,9.1,1111122 
SCCF RECON,ioos:station:SCCF:53:1,2008-11-08T16:00:00Z,26.6493,-81.8810,8.16,1111122 
SCCF RECON,ioos:station:SCCF:53:1,2008-11-08T17:00:00Z,26.6493,-81.8810,9.09,1111122 
SCCF RECON,ioos:station:SCCF:53:1,2008-11-08T18:00:00Z,26.6493,-81.8810,7.35,1111122 
SCCF RECON,ioos:station:SCCF:53:1,2008-11-08T19:00:00Z,26.6493,-81.8810,6.29,1111122 
SCCF RECON,ioos:station:SCCF:53:1,2008-11-08T20:00:00Z,26.6493,-81.8810,6.19,1111122 
SCCF RECON,ioos:station:SCCF:53:1,2008-11-08T21:00:00Z,26.6493,-81.8810,6.37,1111122 
SCCF RECON,ioos:station:SCCF:53:1,2008-11-08T22:00:00Z,26.6493,-81.8810,6.4,1111122 
SCCF RECON,ioos:station:SCCF:53:1,2008-11-08T23:00:00Z,26.6493,-81.8810,6.51,1111122 
SCCF RECON,ioos:station:SCCF:53:1,2008-11-09T00:00:00Z,26.6493,-81.8810,6.65,1111122 
SCCF RECON,ioos:station:SCCF:53:1,2008-11-09T01:00:00Z,26.6493,-81.8810,6.67,1111122 
SCCF RECON,ioos:station:SCCF:53:1,2008-11-09T02:00:00Z,26.6493,-81.8810,6.67,1111122 
SCCF RECON,ioos:station:SCCF:53:1,2008-11-09T03:00:00Z,26.6493,-81.8810,9.16,1111122 
SCCF RECON,ioos:station:SCCF:53:1,2008-11-09T04:00:00Z,26.6493,-81.8810,8.47,1111122 
SCCF RECON,ioos:station:SCCF:53:1,2008-11-09T05:00:00Z,26.6493,-81.8810,7.92,1111122 
SCCF RECON,ioos:station:SCCF:53:1,2008-11-09T06:00:00Z,26.6493,-81.8810,7.64,1111122 
SCCF RECON,ioos:station:SCCF:53:1,2008-11-09T07:00:00Z,26.6493,-81.8810,6.82,1111122 
SCCF RECON,ioos:station:SCCF:53:1,2008-11-09T08:00:00Z,26.6493,-81.8810,6.42,1111122 
SCCF RECON,ioos:station:SCCF:53:1,2008-11-09T09:00:00Z,26.6493,-81.8810,9.14,1111122 
SCCF RECON,ioos:station:SCCF:53:1,2008-11-09T10:00:00Z,26.6493,-81.8810,9.76,1111122 
SCCF RECON,ioos:station:SCCF:53:1,2008-11-09T11:00:00Z,26.6493,-81.8810,8.13,1111122 
SCCF RECON,ioos:station:SCCF:53:1,2008-11-09T12:00:00Z,26.6493,-81.8810,5.96,1111122 
SCCF RECON,ioos:station:SCCF:53:1,2008-11-09T13:00:00Z,26.6493,-81.8810,8.51,1111122 
SCCF RECON,ioos:station:SCCF:53:1,2008-11-09T14:00:00Z,26.6493,-81.8810,11.2,1111122 
SCCF RECON,ioos:station:SCCF:53:1,2008-11-09T15:00:00Z,26.6493,-81.8810,10.92,1111122 
SCCF RECON,ioos:station:SCCF:53:1,2008-11-09T16:00:00Z,26.6493,-81.8810,15.86,1111122 
SCCF RECON,ioos:station:SCCF:53:1,2008-11-09T17:00:00Z,26.6493,-81.8810,14.06,1111122 
SCCF RECON,ioos:station:SCCF:53:1,2008-11-09T18:00:00Z,26.6493,-81.8810,10.06,1111122 
SCCF RECON,ioos:station:SCCF:53:1,2008-11-09T19:00:00Z,26.6493,-81.8810,10.04,1111122 
SCCF RECON,ioos:station:SCCF:53:1,2008-11-09T20:00:00Z,26.6493,-81.8810,7.77,1111122 
SCCF RECON,ioos:station:SCCF:53:1,2008-11-09T21:00:00Z,26.6493,-81.8810,8.21,1111122 
SCCF RECON,ioos:station:SCCF:53:1,2008-11-09T22:00:00Z,26.6493,-81.8810,8.5,1111122 
SCCF RECON,ioos:station:SCCF:53:1,2008-11-09T23:00:00Z,26.6493,-81.8810,7.78,1111122 
SCCF RECON,ioos:station:SCCF:53:1,2008-11-10T00:00:00Z,26.6493,-81.8810,10.38,1111122 
SCCF RECON,ioos:station:SCCF:53:1,2008-11-10T01:00:00Z,26.6493,-81.8810,12.27,1111122 
SCCF RECON,ioos:station:SCCF:53:1,2008-11-10T02:00:00Z,26.6493,-81.8810,10.4,1111122 
SCCF RECON,ioos:station:SCCF:53:1,2008-11-10T03:00:00Z,26.6493,-81.8810,10.11,1111122 
SCCF RECON,ioos:station:SCCF:53:1,2008-11-10T04:00:00Z,26.6493,-81.8810,8.93,1111122 
SCCF RECON,ioos:station:SCCF:53:1,2008-11-10T05:00:00Z,26.6493,-81.8810,9.85,1111122 
SCCF RECON,ioos:station:SCCF:53:1,2008-11-10T06:00:00Z,26.6493,-81.8810,10.62,1111122 
SCCF RECON,ioos:station:SCCF:53:1,2008-11-10T07:00:00Z,26.6493,-81.8810,8.77,1111122 
SCCF RECON,ioos:station:SCCF:53:1,2008-11-10T08:00:00Z,26.6493,-81.8810,5.06,1111122 
SCCF RECON,ioos:station:SCCF:53:1,2008-11-10T09:00:00Z,26.6493,-81.8810,6.9,1111122 
SCCF RECON,ioos:station:SCCF:53:1,2008-11-10T10:00:00Z,26.6493,-81.8810,6.37,1111122 
SCCF RECON,ioos:station:SCCF:53:1,2008-11-10T11:00:00Z,26.6493,-81.8810,6.55,1111122 
SCCF RECON,ioos:station:SCCF:53:1,2008-11-10T12:00:00Z,26.6493,-81.8810,6.0,1111122 
SCCF RECON,ioos:station:SCCF:53:1,2008-11-10T13:00:00Z,26.6493,-81.8810,5.39,1111122 
SCCF RECON,ioos:station:SCCF:53:1,2008-11-10T14:00:00Z,26.6493,-81.8810,5.56,1111122 
SCCF RECON,ioos:station:SCCF:53:1,2008-11-10T15:00:00Z,26.6493,-81.8810,5.48,1111122 
SCCF RECON,ioos:station:SCCF:53:1,2008-11-10T16:00:00Z,26.6493,-81.8810,6.08,1111122 
SCCF RECON,ioos:station:SCCF:53:1,2008-11-10T17:00:00Z,26.6493,-81.8810,10.19,1111122 
SCCF RECON,ioos:station:SCCF:53:1,2008-11-10T18:00:00Z,26.6493,-81.8810,10.99,1111122 
SCCF RECON,ioos:station:SCCF:53:1,2008-11-10T19:00:00Z,26.6493,-81.8810,8.77,1111122 
SCCF RECON,ioos:station:SCCF:53:1,2008-11-10T20:00:00Z,26.6493,-81.8810,7.2,1111122 
SCCF RECON,ioos:station:SCCF:53:1,2008-11-10T21:00:00Z,26.6493,-81.8810,8.22,1111122 
SCCF RECON,ioos:station:SCCF:53:1,2008-11-10T22:00:00Z,26.6493,-81.8810,5.83,1111122 
SCCF RECON,ioos:station:SCCF:53:1,2008-11-10T23:00:00Z,26.6493,-81.8810,8.22,1111122 
SCCF RECON,ioos:station:SCCF:53:1,2008-11-11T00:00:00Z,26.6493,-81.8810,7.05,1111122 
SCCF RECON,ioos:station:SCCF:53:1,2008-11-11T01:00:00Z,26.6493,-81.8810,7.87,1111122 
SCCF RECON,ioos:station:SCCF:53:1,2008-11-11T02:00:00Z,26.6493,-81.8810,6.09,1111122 
SCCF RECON,ioos:station:SCCF:53:1,2008-11-11T03:00:00Z,26.6493,-81.8810,5.59,1111122 
SCCF RECON,ioos:station:SCCF:53:1,2008-11-11T04:00:00Z,26.6493,-81.8810,4.55,1111122 
SCCF RECON,ioos:station:SCCF:53:1,2008-11-11T05:00:00Z,26.6493,-81.8810,6.46,1111122 
SCCF RECON,ioos:station:SCCF:53:1,2008-11-11T06:00:00Z,26.6493,-81.8810,9.91,1111122 
SCCF RECON,ioos:station:SCCF:53:1,2008-11-11T07:00:00Z,26.6493,-81.8810,4.81,1111122 
SCCF RECON,ioos:station:SCCF:53:1,2008-11-11T08:00:00Z,26.6493,-81.8810,4.19,1111122 
SCCF RECON,ioos:station:SCCF:53:1,2008-11-11T09:00:00Z,26.6493,-81.8810,5.14,1111122 
SCCF RECON,ioos:station:SCCF:53:1,2008-11-11T10:00:00Z,26.6493,-81.8810,5.08,1111122 
SCCF RECON,ioos:station:SCCF:53:1,2008-11-11T11:00:00Z,26.6493,-81.8810,4.43,1111122 
SCCF RECON,ioos:station:SCCF:53:1,2008-11-11T12:00:00Z,26.6493,-81.8810,4.93,1111122 
SCCF RECON,ioos:station:SCCF:53:1,2008-11-11T13:00:00Z,26.6493,-81.8810,4.53,1111122 
SCCF RECON,ioos:station:SCCF:53:1,2008-11-11T14:00:00Z,26.6493,-81.8810,4.39,1111122 
SCCF RECON,ioos:station:SCCF:53:1,2008-11-11T15:00:00Z,26.6493,-81.8810,4.65,1111122 
SCCF RECON,ioos:station:SCCF:53:1,2008-11-11T16:00:00Z,26.6493,-81.8810,5.74,1111122 
SCCF RECON,ioos:station:SCCF:53:1,2008-11-11T17:00:00Z,26.6493,-81.8810,5.63,1111122 
SCCF RECON,ioos:station:SCCF:53:1,2008-11-11T18:00:00Z,26.6493,-81.8810,6.83,1111122 
SCCF RECON,ioos:station:SCCF:53:1,2008-11-11T19:00:00Z,26.6493,-81.8810,6.95,1111122 
SCCF RECON,ioos:station:SCCF:53:1,2008-11-11T20:00:00Z,26.6493,-81.8810,6.12,1111122 
SCCF RECON,ioos:station:SCCF:53:1,2008-11-11T21:00:00Z,26.6493,-81.8810,4.71,1111122 
SCCF RECON,ioos:station:SCCF:53:1,2008-11-11T22:00:00Z,26.6493,-81.8810,5.27,1111122 
SCCF RECON,ioos:station:SCCF:53:1,2008-11-11T23:00:00Z,26.6493,-81.8810,3.85,1111122 
SCCF RECON,ioos:station:SCCF:53:1,2008-11-12T00:00:00Z,26.6493,-81.8810,3.77,1111122 
SCCF RECON,ioos:station:SCCF:53:1,2008-11-12T01:00:00Z,26.6493,-81.8810,5.04,1111122 
SCCF RECON,ioos:station:SCCF:53:1,2008-11-12T02:00:00Z,26.6493,-81.8810,4.29,1111122 
SCCF RECON,ioos:station:SCCF:53:1,2008-11-12T03:00:00Z,26.6493,-81.8810,4.45,1111122 
SCCF RECON,ioos:station:SCCF:53:1,2008-11-12T04:00:00Z,26.6493,-81.8810,4.17,1111122 
SCCF RECON,ioos:station:SCCF:53:1,2008-11-12T05:00:00Z,26.6493,-81.8810,4.7,1111122 
SCCF RECON,ioos:station:SCCF:53:1,2008-11-12T06:00:00Z,26.6493,-81.8810,4.2,1111122 
SCCF RECON,ioos:station:SCCF:53:1,2008-11-12T07:00:00Z,26.6493,-81.8810,3.64,1111122 
SCCF RECON,ioos:station:SCCF:53:1,2008-11-12T08:00:00Z,26.6493,-81.8810,2.3,1111122 
SCCF RECON,ioos:station:SCCF:53:1,2008-11-12T09:00:00Z,26.6493,-81.8810,3.87,1111122 
SCCF RECON,ioos:station:SCCF:53:1,2008-11-12T10:00:00Z,26.6493,-81.8810,4.09,1111122 
SCCF RECON,ioos:station:SCCF:53:1,2008-11-12T11:00:00Z,26.6493,-81.8810,4.22,1111122 
SCCF RECON,ioos:station:SCCF:53:1,2008-11-12T12:00:00Z,26.6493,-81.8810,3.92,1111122 
SCCF RECON,ioos:station:SCCF:53:1,2008-11-12T13:00:00Z,26.6493,-81.8810,3.7,1111122 